TimeCDT,TemperatureF,Dew PointF,Humidity,Sea Level PressureIn,VisibilityMPH,Wind Direction,Wind SpeedMPH,Gust SpeedMPH,PrecipitationIn,Events,Conditions,WindDirDegrees,DateUTC
12:15 AM,41.0,23.7,50,30.13,10.0,WNW,8.1,16.1,N/A,,Clear,290,2012-10-06 05:15:00
12:35 AM,40.5,24.1,52,30.12,10.0,West,8.1,16.1,N/A,,Clear,280,2012-10-06 05:35:00
12:55 AM,39.7,24.1,54,30.12,10.0,West,9.2,-,N/A,,Clear,270,2012-10-06 05:55:00
1:15 AM,39.2,24.4,56,30.12,10.0,West,9.2,-,N/A,,Clear,270,2012-10-06 06:15:00
1:35 AM,38.3,24.8,58,30.13,10.0,West,6.9,-,N/A,,Clear,270,2012-10-06 06:35:00
1:55 AM,37.8,25.7,62,30.13,10.0,West,6.9,-,N/A,,Clear,270,2012-10-06 06:55:00
2:15 AM,37.9,26.6,64,30.14,10.0,WNW,10.4,-,N/A,,Clear,290,2012-10-06 07:15:00
2:35 AM,37.6,27.0,66,30.13,10.0,WNW,9.2,-,N/A,,Clear,290,2012-10-06 07:35:00
2:55 AM,37.4,26.8,66,30.13,10.0,WNW,8.1,-,N/A,,Clear,290,2012-10-06 07:55:00
3:15 AM,36.9,27.3,68,30.13,10.0,WNW,9.2,-,N/A,,Clear,290,2012-10-06 08:15:00
3:35 AM,36.7,27.0,68,30.13,10.0,West,8.1,-,N/A,,Clear,280,2012-10-06 08:35:00
3:55 AM,36.5,26.6,67,30.13,10.0,West,8.1,-,N/A,,Clear,280,2012-10-06 08:55:00
4:35 AM,34.7,26.6,72,30.13,10.0,NW,6.9,-,N/A,,Clear,310,2012-10-06 09:35:00
4:55 AM,35.2,26.6,71,30.14,10.0,WNW,8.1,-,N/A,,Clear,300,2012-10-06 09:55:00
5:15 AM,35.2,26.8,71,30.15,10.0,West,4.6,-,N/A,,Clear,260,2012-10-06 10:15:00
5:35 AM,34.7,26.6,72,30.16,10.0,West,6.9,-,N/A,,Scattered Clouds,270,2012-10-06 10:35:00
5:55 AM,35.2,27.0,72,30.16,10.0,West,3.5,-,N/A,,Overcast,270,2012-10-06 10:55:00
6:15 AM,34.7,26.8,73,30.16,10.0,West,4.6,-,N/A,,Overcast,280,2012-10-06 11:15:00
6:35 AM,34.9,26.8,72,30.16,10.0,West,4.6,-,N/A,,Overcast,260,2012-10-06 11:35:00
6:55 AM,34.0,27.0,75,30.16,10.0,West,3.5,-,N/A,,Mostly Cloudy,260,2012-10-06 11:55:00
7:15 AM,34.2,26.6,74,30.16,10.0,West,4.6,-,N/A,,Scattered Clouds,260,2012-10-06 12:15:00
7:35 AM,34.3,26.8,74,30.17,10.0,WNW,8.1,-,N/A,,Clear,290,2012-10-06 12:35:00
7:55 AM,34.7,26.6,72,30.17,10.0,West,10.4,-,N/A,,Clear,270,2012-10-06 12:55:00
8:15 AM,35.6,27.3,72,30.18,10.0,West,6.9,-,N/A,,Clear,280,2012-10-06 13:15:00
8:35 AM,37.2,27.9,69,30.18,10.0,WNW,9.2,-,N/A,,Clear,290,2012-10-06 13:35:00
8:55 AM,37.8,27.5,67,30.19,10.0,West,10.4,18.4,N/A,,Clear,280,2012-10-06 13:55:00
9:15 AM,39.2,27.9,64,30.18,10.0,WNW,10.4,-,N/A,,Clear,300,2012-10-06 14:15:00
9:35 AM,40.6,28.4,62,30.19,10.0,WNW,8.1,-,N/A,,Clear,290,2012-10-06 14:35:00
9:55 AM,41.9,28.2,58,30.19,10.0,NW,8.1,-,N/A,,Clear,310,2012-10-06 14:55:00
10:15 AM,43.3,28.6,56,30.19,10.0,NW,10.4,-,N/A,,Scattered Clouds,320,2012-10-06 15:15:00
10:35 AM,43.3,28.2,55,30.20,10.0,NW,10.4,-,N/A,,Scattered Clouds,320,2012-10-06 15:35:00
10:55 AM,43.2,27.9,55,30.20,10.0,NW,9.2,-,N/A,,Overcast,310,2012-10-06 15:55:00
11:15 AM,44.4,27.7,52,30.20,10.0,NW,9.2,-,N/A,,Overcast,310,2012-10-06 16:15:00
11:35 AM,44.8,28.2,52,30.20,10.0,WNW,12.7,17.3,N/A,,Overcast,300,2012-10-06 16:35:00
11:55 AM,44.4,28.0,53,30.20,10.0,WNW,10.4,17.3,N/A,,Overcast,300,2012-10-06 16:55:00
12:15 PM,46.2,28.2,50,30.20,10.0,NW,13.8,17.3,N/A,,Overcast,310,2012-10-06 17:15:00
12:35 PM,45.3,28.4,52,30.20,10.0,WNW,8.1,16.1,N/A,,Overcast,290,2012-10-06 17:35:00
12:55 PM,45.0,28.0,52,30.20,10.0,NW,12.7,16.1,N/A,,Overcast,310,2012-10-06 17:55:00
1:15 PM,45.5,27.9,50,30.20,10.0,NW,10.4,18.4,N/A,,Overcast,320,2012-10-06 18:15:00
1:35 PM,45.0,28.4,52,30.20,10.0,NW,11.5,18.4,N/A,,Overcast,310,2012-10-06 18:35:00
1:55 PM,44.4,28.4,53,30.19,10.0,NW,11.5,-,N/A,,Overcast,320,2012-10-06 18:55:00
2:15 PM,44.2,28.0,53,30.19,10.0,WNW,9.2,-,N/A,,Overcast,300,2012-10-06 19:15:00
2:35 PM,44.6,27.7,52,30.20,10.0,WNW,8.1,-,N/A,,Overcast,300,2012-10-06 19:35:00
2:55 PM,44.2,28.2,53,30.20,10.0,WNW,10.4,16.1,N/A,,Overcast,300,2012-10-06 19:55:00
3:15 PM,44.1,27.9,53,30.20,10.0,WNW,6.9,-,N/A,,Overcast,300,2012-10-06 20:15:00
3:35 PM,44.2,28.0,53,30.20,10.0,WNW,10.4,-,N/A,,Overcast,290,2012-10-06 20:35:00
3:55 PM,44.1,27.9,53,30.20,10.0,NW,10.4,-,N/A,,Overcast,310,2012-10-06 20:55:00
4:15 PM,44.1,28.2,54,30.20,10.0,WNW,8.1,-,N/A,,Overcast,300,2012-10-06 21:15:00
4:35 PM,43.9,28.0,54,30.20,10.0,West,8.1,-,N/A,,Overcast,280,2012-10-06 21:35:00
5:15 PM,43.7,27.7,53,30.20,10.0,WNW,8.1,-,N/A,,Overcast,300,2012-10-06 22:15:00
5:35 PM,43.7,28.2,54,30.21,10.0,WNW,6.9,-,N/A,,Overcast,300,2012-10-06 22:35:00
5:55 PM,43.7,28.4,55,30.21,10.0,NW,5.8,-,N/A,,Overcast,310,2012-10-06 22:55:00
6:15 PM,43.3,28.4,56,30.21,10.0,NW,4.6,-,N/A,,Overcast,310,2012-10-06 23:15:00
6:35 PM,43.5,28.4,55,30.21,10.0,WNW,5.8,-,N/A,,Overcast,300,2012-10-06 23:35:00
6:55 PM,43.2,28.9,57,30.21,10.0,NW,5.8,-,N/A,,Overcast,310,2012-10-06 23:55:00
7:15 PM,43.3,28.8,56,30.21,10.0,WNW,5.8,-,N/A,,Overcast,300,2012-10-07 00:15:00
7:35 PM,43.0,29.7,59,30.21,10.0,WNW,4.6,-,N/A,,Overcast,300,2012-10-07 00:35:00
7:55 PM,43.0,29.8,60,30.21,10.0,NW,4.6,-,N/A,,Overcast,320,2012-10-07 00:55:00
8:15 PM,42.8,29.7,60,30.21,10.0,NW,5.8,-,N/A,,Overcast,320,2012-10-07 01:15:00
8:35 PM,42.6,28.4,57,30.22,10.0,NW,4.6,-,N/A,,Overcast,320,2012-10-07 01:35:00
8:55 PM,42.4,28.4,58,30.21,10.0,NW,4.6,-,N/A,,Overcast,320,2012-10-07 01:55:00
9:15 PM,42.3,27.9,57,30.22,10.0,NW,5.8,-,N/A,,Overcast,310,2012-10-07 02:15:00
9:35 PM,42.4,28.2,57,30.22,10.0,WNW,4.6,-,N/A,,Overcast,300,2012-10-07 02:35:00
9:55 PM,42.8,27.7,55,30.22,10.0,WNW,4.6,-,N/A,,Overcast,300,2012-10-07 02:55:00
10:15 PM,42.4,28.4,58,30.22,10.0,NW,4.6,-,N/A,,Overcast,310,2012-10-07 03:15:00
10:35 PM,42.3,29.1,60,30.22,10.0,WNW,4.6,-,N/A,,Overcast,300,2012-10-07 03:35:00
10:55 PM,42.4,28.2,57,30.22,10.0,WNW,4.6,-,N/A,,Overcast,300,2012-10-07 03:55:00
11:15 PM,42.3,28.4,58,30.22,10.0,WNW,4.6,-,N/A,,Overcast,290,2012-10-07 04:15:00
11:35 PM,42.1,28.9,60,30.22,10.0,NW,4.6,-,N/A,,Overcast,310,2012-10-07 04:35:00
11:55 PM,41.9,28.8,60,30.22,10.0,WNW,5.8,-,N/A,,Overcast,300,2012-10-07 04:55:00